Location: Jastrz?bniki
(50.3667°N, 20.3833°E)
Time: 10:28:32
(UTC+00:00)

Cosmos 372 Rocket - Pass Details

Date: 05 August 2024
Orbit: 736 x 764 km, 74.1° (Epoch: 09 September)

Event Time Altitude Azimuth Distance (km) Brightness Sun altitude
Rises 00:23:25 0° 333° (NNW) 3,179 7.8 -19.3°
Reaches altitude 10° 00:25:48 10° 330° (NNW) 2,253 6.9 -19.2°
Maximum altitude 00:30:48 61° 251° (WSW) 837 3.9 -18.8°
Enters shadow 00:32:55 34° 185° (S) 1,214 4.5 -18.6°
